This is the latest recevied weather packets stored in our database for station/object SV2LPQ-2. If no packets are shown the sender has not sent any weather packets the latest 10 day(s).
| Time | Temp. | Humidity | Pressure | Rain* | Wind** | Luminosity | Snow |
|---|---|---|---|---|---|---|---|
| 1777917572 | 18.89° C | 45% | 1042.5 hPa | 0 mm | - | - | - |
| 1777917073 | 19.44° C | 42% | 1042.5 hPa | 0 mm | - | - | - |
| 1777916572 | 20° C | 41% | 1042.5 hPa | 0 mm | - | - | - |
| 1777916072 | 20° C | 41% | 1042.5 hPa | 0 mm | - | - | - |
| 1777915572 | 20° C | 41% | 1042.5 hPa | 0 mm | - | - | - |
| 1777915072 | 21.11° C | 39% | 1042.5 hPa | 0 mm | - | - | - |
| 1777914572 | 21.11° C | 37% | 1042.5 hPa | 0 mm | - | - | - |
| 1777914072 | 21.67° C | 36% | 1042.5 hPa | 0 mm | - | - | - |
| 1777913572 | 22.22° C | 36% | 1042.5 hPa | 0 mm | - | - | - |
| 1777913072 | 22.22° C | 36% | 1042.5 hPa | 0 mm | - | - | - |
| 1777912572 | 22.78° C | 35% | 1042.5 hPa | 0 mm | - | - | - |
| 1777912072 | 23.33° C | 33% | 1042.5 hPa | 0 mm | - | - | - |
| 1777911572 | 23.33° C | 32% | 1042.5 hPa | 0 mm | - | - | - |
| 1777911072 | 23.89° C | 31% | 1042.5 hPa | 0 mm | - | - | - |
| 1777910572 | 24.44° C | 32% | 1042.5 hPa | 0 mm | - | - | - |
| 1777910072 | 24.44° C | 31% | 1042.5 hPa | 0 mm | - | - | - |
| 1777909572 | 24.44° C | 30% | 1042.5 hPa | 0 mm | - | - | - |
| 1777909072 | 24.44° C | 31% | 1042.5 hPa | 0 mm | - | - | - |
| 1777908572 | 24.44° C | 32% | 1042.5 hPa | 0 mm | - | - | - |
| 1777908072 | 24.44° C | 31% | 1042.5 hPa | 0 mm | - | - | - |
| 1777907572 | 24.44° C | 30% | 1042.5 hPa | 0 mm | - | - | - |
| 1777907072 | 25° C | 30% | 1042.5 hPa | 0 mm | - | - | - |
| 1777906572 | 25° C | 30% | 1042.5 hPa | 0 mm | - | - | - |
| 1777906072 | 25° C | 29% | 1042.5 hPa | 0 mm | - | - | - |
| 1777905572 | 25° C | 32% | 1042.5 hPa | 0 mm | - | - | - |
* Rain latest hour (hover to see other rain measurements)
** Current wind speed in m/s (hover to see current wind gust speed)